User: anonymous   Login
Location: Unspecified
(0.0000°N, 0.0000°E)
Time: 16:18:38
(UTC+00:00)
Language:

GONETS M 13 (M23) - Orbit

View from above orbital plane
View from above orbital plane
View from above satellite
View from above satellite

Ground track
Ground track

The orbit data is extracted from the following two-line orbital elements,

1 40554U 15020C   18261.19688928  .00000034  00000-0  17134-3 0  9991
2 40554  82.4903 353.4849 0013122  25.2842 334.8877 12.42871851157343
Epoch (UTC): 18 September 2018 04:43:31
Eccentricity: 0.0013122
inclination: 82.4903°
perigee height: 1484 km
apogee height: 1505 km
right ascension of ascending node: 353.4849°
argument of perigee: 25.2842°
revolutions per day: 12.42871851
mean anomaly at epoch: 334.8877°
orbit number at epoch: 15734

The dashed part of the orbit path shows where the satellite is in the earth's shadow,  

DLR